Flag for Germany Weather past 2 weeks in Mosbach, Baden-Württemberg, Germany

Now
39 °F

Light rain. Low clouds.


Feels Like: 39 °F
Forecast: 29 / 42 °F
Wind: 2 mph from West

Location: Oehringen

Current Time: Feb 27, 2015 at 4:38:04 PM

Latest Report: Feb 27, 2015 at 4:00 PM


Visibility: 1 mi

Pressure: 29.96 "Hg

Humidity: 94%

Dew point: 37 °F

Location of MosbachLocation

Historic Weather in Mosbach — Graph

°F

Mosbach temperature yesterday

Maximum temperature yesterday: 51 °F (at 3:00 PM)
Minimum temperature yesterday: 30 °F (at 3:00 AM)
Average temperature yesterday: 40 °F

Past Weeks' High & Low Weather Summary

 TemperatureHumidityPressure
High57 °F (Feb 20, 4:00 PM)100% (Feb 17, 5:00 AM)30.79 "Hg (Feb 17, 5:00 AM)
Low24 °F (Feb 20, 7:00 AM)34% (Feb 21, 1:00 AM)29.53 "Hg (Feb 21, 11:00 AM)
Average36 °F80%30.07 "Hg
* Reported Feb 12 3:00 PM — Feb 27 3:00 PM, Mosbach, Weather by CustomWeather, © 2015

Note: Actual official high and low records may vary slightly from our data, if they occured in-between our weather recording intervals... More about our weather records

Advertising

Mosbach weather history for previous 24 hours

 ConditionsComfort  
Time TempWeatherWind HumidityBarometerVisibility
3:00 PM
Fri, Feb 27
39 °FLight freezing rain. Overcast.3 mph89%29.93 "Hg3 mi
2:00 PM43 °FOvercast.3 mph71%29.89 "Hg9 mi
1:00 PM43 °FOvercast.1 mph57%29.89 "Hg12 mi
12:00 PM43 °FOvercast.1 mph60%29.88 "Hg10 mi
11:00 AM41 °FOvercast.2 mph64%29.86 "Hg11 mi
10:00 AM39 °FOvercast.1 mph72%29.85 "Hg9 mi
9:00 AM38 °FOvercast.1 mph74%29.83 "Hg10 mi
8:00 AM37 °FOvercast.2 mph73%29.83 "Hg11 mi
7:00 AM38 °FOvercast.1 mph64%29.83 "Hg14 mi
6:00 AM37 °FOvercast.2 mph72%29.83 "Hg11 mi
5:00 AM37 °FOvercast.2 mph73%29.84 "Hg9 mi
4:00 AM39 °FOvercast.2 mph62%29.85 "Hg14 mi
3:00 AM39 °FOvercast.3 mph63%29.88 "Hg12 mi
2:00 AM38 °FOvercast.1 mph62%29.91 "Hg14 mi
1:00 AM36 °FOvercast.2 mph65%29.94 "Hg18 mi
12:00 AM37 °FPassing clouds.2 mph61%29.96 "Hg19 mi
11:00 PM
Thu, Feb 26
38 °FPassing clouds.2 mph59%29.97 "Hg19 mi
10:00 PM39 °FClear.3 mph57%29.99 "Hg19 mi
9:00 PM39 °FClear.3 mph58%30.01 "Hg19 mi
8:00 PM41 °FClear.5 mph53%30.03 "Hg19 mi
7:00 PM43 °FClear.3 mph47%30.03 "Hg25 mi
6:00 PM46 °FClear.5 mph43%30.03 "Hg28 mi
5:00 PM49 °FSunny.3 mph40%30.03 "Hg37 mi
4:00 PM51 °FSunny.3 mph37%30.04 "Hg37 mi
Weather by CustomWeather, © 2015

See weather overviewHow to use our weather pages